International Virtual Aviation Organisation

Russian Federation and Kazakhstan MCD

 

Карточка аэропорта UUWW

Внимание!
Информация на этой странице в стадии наполнения.
Если вы не увидели какой-то информации, или заметили неточность - пожалуйста сообщите нам!
Спасибо!
Команда RU-STAFF
Название аэропортаВнуково
Название аэропорта (англ.)Vnukovo
Превышение686 ft. (209.1 m.)
Координаты55°35.952', 37°16.386'
Высота перехода1200 m
Эшелон переходаBy ATC
Коды ответчика2101-2117
Зона ОрВДМосква РПИ (UUWV)
Данные METARUUWW 211030Z 30005MPS 9999 BKN025 19/13 Q1017 R24/000070 NOSIG
Проноз погоды (TAF)UUWW 210757Z 2109/2209 27005MPS 9999 BKN012 TX20/2112Z TN13/2202Z TEMPO 2109/2119 30008G13MPS 3100 -TSRA FEW008 BKN015CB TEMPO 2119/2205 3100 BR FEW004
NOTAMshow/hide NOTAM
AWOS   TABLE

Информация о ВПП

ВПП Длина ВПП (м.) Покрытие Курс ВПП Частота ILS
013060Бетон13111.7
193060Бетон193111.5
063500Бетон58108.9
243500Бетон238111.1

Диспетчерские позиции

Позывной Наименование органа УВД Частота
UUWW_TWRВнуково-Старт/Посадка118.300
UUWW_R_APPВнуково-Круг126.000
UUWW_GNDВнуково-Руление120.450
UUWW_DELВнуково-Деливери131.800



Спутниковое изображение